Showing default

NAVSPASUR ROD 1, 1515

Orbit data source: Space-Track

NAVSPASUR ROD 1, 1515 is a payload satellite owned by NRL (US) in LEO that was launched on Fri, 13 Aug 1965 UTC via a THOR ABLESTAR launch vehicle from the Air Force Western Test Range (AFWTR). Payload-class satellites include a variety of spacecraft equipped with specific instruments for various scientific and technological missions. These include communications satellites like Starlink; space stations such as the ISS; scientific satellites like the Hubble; Earth observation satellites from companies like Planet Labs, Umbra, and HawkEye 360; GPS; miniature CubeSats for education and research; and military/defense satellites.

Loading next visibility...
Identifier
1515, 1965-065G
Orbit
LEO
Last TLE update
12 hours ago
Origin
Manufacturer
NRL
Mission
Defense Calibration
Bus & Motor
LONG ROD, Unknown motor
Mass
3 kg wet, 3 kg dry
Launch date (UTC)
1965-08-13 (60 years ago)
Launch vehicle
THOR ABLESTAR
Launch site
Air Force Western Test Range (AFWTR)
Object type
Payload
Rocket body
Debris
Shape & HBR
Sphere, 0.4 m
Radar Cross Section
0.126 m², Small (<0.1 m²)

Expand to show TLE details & history

TLE from 12 hours ago
0 NAVSPASUR ROD 1
1 01515U 65065G   25186.55394304  .00000388  00000-0  58530-3 0  9992
2 01515  89.9993 213.7813 0055873 237.0478 278.2352 13.50626523933529
Epoch: 2025-07-05T13:17Z
TLE epoch observation values (Epoch: 2025-07-05T13:17:40.678Z)
Latitude
25.37896°
Longitude
-89.42885°
Altitude
1,067.351 km
Speed
7.323 km/s
True Right ascension
02h 15m 07s
True Declination
25° 15' 06"
Sunlit
Object was in daylight at epoch
Visualization orbit readout
Latitude
3.79298°
Longitude
90.5715°
Altitude
1,098.118 km
Speed
7.291 km/s
Apparent Right ascension
16h 15m 49s
Apparent Declination
-47° 21' 04"
Sunlit
Object is in daylight
Visualization observer readout
Local Sidereal Time
12:56:02
Azimuth
148.428° SSE
Elevation
-7.907°
Doppler factor
1
Orbital elements
Apogee altitude
1,108.601 km
Perigee altitude
1,025.405 km
Semi-major axis
7,445.14 km
Eccentricity
0.00559
Inclination
89.9993°
RAAN
213.7813°
Arg. of periapsis
237.0478°
True anomaly
Unknown
Mean anomaly
278.2352°
Eccentric anomaly
Unknown
Mean motion
3.37858 °/min
Orbital period
106.55 mins
BSTAR
0.0005853
Loading maneuver chart data...
Loading SW <> Apogee altitude chart data...
Loading historical data...
Loading historical data...
Loading historical data...
Loading historical data...
Loading historical data...
Loading historical data...
Loading historical data...

NAVSPASUR ROD 1 Visibility forecast

Observer location: undefined°, undefined°

Span
Click to sort rows by Start time (UTC) header in descending order
Start Az.
Max El. time (UTC)
Max El. Az.
Max El.
End time (UTC)
End Az.
11 mins2025-07-06 01:05:25.726Z130.579° SE2025-07-06 01:10:25.726Z81.195° E25.624°2025-07-06 01:16:25.726Z19.673° NNE
11 mins2025-07-06 02:51:25.726Z203.64° SW2025-07-06 02:56:25.726Z261.416° W36.036°2025-07-06 03:02:25.726Z342.748° N
12 mins2025-07-06 14:01:25.726Z6.177° NNE2025-07-06 14:06:25.726Z49.513° ENE43.783°2025-07-06 14:13:25.726Z178.158° S
5 mins2025-07-06 15:50:25.726Z310.571° NW2025-07-06 15:52:25.726Z290.056° WNW15.989°2025-07-06 15:55:25.726Z260.313° W
|